1501963200.81,7108,27.19,74562.8,10.31,-14.65,-15.07,0,*75
1501963202.04,7109,27.19,74558.0,10.31,-14.65,-14.89,0,*73
1501963203.29,7110,27.19,74554.8,10.29,-14.51,-14.83,0,*7F
1501963204.54,7111,27.19,74558.0,10.33,-14.55,-14.75,0,*78
1501963205.76,7112,27.19,74554.0,10.31,-14.65,-14.89,0,*79
1501963206.99,7113,27.19,74558.0,10.31,-14.65,-14.89,0,*78
1501963208.2,7114,27.19,74560.3,10.33,-14.69,-14.97,0,*7E
1501963209.41,7115,27.19,74558.5,10.33,-14.69,-15.01,0,*71
1501963210.62,7116,27.19,74554.5,10.33,-14.69,-15.01,0,*72
1501963211.87,7117,27.19,74558.5,10.33,-14.75,-14.97,0,*70
1501963213.14,7118,27.19,74558.5,10.35,-14.83,-15.01,0,*7E
1501963214.36,7119,27.19,74560.3,10.33,-14.75,-15.11,0,*71
1501963215.57,7120,27.19,74560.8,10.33,-14.69,-15.01,0,*77
1501963216.78,7121,27.19,74556.8,10.33,-14.97,-15.11,0,*76
1501963218.0,7122,27.19,74552.3,10.35,-14.89,-15.15,0,*78
1501963219.2,7123,27.19,74550.0,10.33,-14.89,-15.15,0,*7F
1501963220.39,7124,27.19,74540.3,10.33,-14.89,-15.11,0,*7C
1501963221.67,7125,27.19,74538.0,10.35,-14.83,-15.01,0,*70
1501963222.91,7126,27.19,74542.0,10.33,-14.75,-15.01,0,*7C
1501963224.17,7127,27.19,74548.3,10.35,-14.75,-15.01,0,*7B
1501963225.41,7128,27.19,74546.5,10.35,-14.97,-15.11,0,*79
1501963226.66,7129,27.19,74550.5,10.35,-14.97,-15.25,0,*7F
1501963227.88,7130,27.19,74548.8,10.33,-15.01,-15.25,0,*7F
1501963229.13,7131,27.19,74554.3,10.35,-14.97,-15.25,0,*76
1501963230.35,7132,27.19,74552.3,10.35,-15.11,-15.29,0,*76
1501963231.6,7133,27.19,74552.8,10.37,-15.21,-15.53,0,*7B
1501963232.82,7134,27.19,74556.8,10.33,-15.39,-15.63,0,*72
1501963234.09,7135,27.19,74554.5,10.35,-15.39,-15.85,0,*7D
1501963235.32,7136,27.19,74554.8,10.35,-15.29,-15.71,0,*74
1501963236.54,7137,27.19,74548.8,10.33,-15.29,-15.57,0,*77
1501963237.74,7138,27.19,74548.0,10.33,-15.29,-15.71,0,*7C
1501963238.96,7139,27.19,74546.5,10.33,-15.25,-15.57,0,*75
1501963240.18,7140,27.19,74548.0,10.35,-15.25,-15.63,0,*7A
1501963241.4,7141,27.19,74550.5,10.33,-15.39,-15.75,0,*77
1501963242.62,7142,27.19,74550.8,10.33,-15.49,-15.89,0,*70
1501963243.84,7143,27.19,74556.8,10.33,-15.15,-15.57,0,*7B
1501963245.09,7144,27.19,74548.8,10.35,-15.25,-15.57,0,*79
1501963246.29,7145,27.19,74546.5,10.33,-15.15,-15.63,0,*7A
1501963247.51,7146,27.19,74548.0,10.35,-15.11,-15.49,0,*73
1501963248.73,7147,27.19,74556.8,10.33,-15.11,-15.57,0,*7B
1501963249.95,7148,27.19,74548.0,10.33,-15.15,-15.57,0,*70
1501963251.19,7149,27.19,74544.0,10.35,-15.11,-15.39,0,*7B
1501963252.41,7150,27.19,74558.5,10.33,-15.01,-15.49,0,*73
1501963253.66,7151,27.19,74550.5,10.33,-15.01,-15.39,0,*75
1501963254.87,7152,27.19,74548.8,10.35,-15.11,-15.63,0,*7E
1501963256.12,7153,27.19,74544.5,10.35,-15.01,-15.49,0,*76
1501963257.35,7154,27.19,74542.3,10.35,-14.89,-15.29,0,*76
1501963258.58,7155,27.19,74552.0,10.35,-14.89,-15.25,0,*7B
1501963259.83,7156,27.19,74554.5,10.35,-14.83,-15.15,0,*71
1501963261.08,7157,27.19,74552.8,10.35,-14.89,-15.39,0,*74
1501963262.31,7158,27.19,74554.3,10.35,-14.89,-15.25,0,*76
1501963263.54,7159,27.19,74546.0,10.33,-14.83,-15.25,0,*7B
1501963264.8,7160,27.19,74534.8,10.35,-14.83,-15.25,0,*77
1501963266.06,7161,27.19,74540.5,10.35,-14.83,-15.25,0,*76
1501963267.33,7162,27.19,74546.0,10.37,-14.97,-15.43,0,*72
1501963268.55,7163,27.19,74558.5,10.37,-15.11,-15.53,0,*7D
1501963269.78,7164,27.19,74558.5,10.37,-15.25,-15.71,0,*7D
1501963271.01,7165,27.19,74560.5,10.37,-15.25,-15.71,0,*7C
1501963272.28,7166,27.19,74560.8,10.35,-15.43,-15.89,0,*7A
1501963273.56,7167,27.19,74566.0,10.35,-15.43,-15.85,0,*77
1501963274.83,7168,27.19,74566.3,10.35,-15.43,-15.89,0,*74
1501963276.1,7169,27.19,74558.0,10.35,-15.43,-15.85,0,*79
1501963277.3,7170,27.19,74556.5,10.33,-15.25,-15.63,0,*7F
1501963278.52,7171,27.19,74554.5,10.35,-15.29,-15.75,0,*73
1501963279.79,7172,27.19,74562.8,10.35,-15.39,-15.89,0,*72
1501963281.02,7173,27.19,74564.0,10.35,-15.29,-15.75,0,*71
1501963282.24,7174,27.19,74558.3,10.35,-15.15,-15.63,0,*7E
1501963283.49,7175,27.19,74556.0,10.35,-15.25,-15.57,0,*7B
1501963284.76,7176,27.19,74554.5,10.37,-15.21,-15.57,0,*7E
1501963285.95,7177,27.19,74550.5,10.33,-15.25,-15.63,0,*78
1501963287.18,7178,27.19,74544.0,10.37,-15.25,-15.67,0,*77
1501963288.4,7179,27.19,74544.5,10.33,-15.39,-15.75,0,*7C
1501963289.62,7180,27.19,74548.5,10.35,-15.29,-15.63,0,*7A
1501963290.89,7181,27.19,74550.5,10.35,-15.39,-15.85,0,*72
1501963292.11,7182,27.19,74554.0,10.33,-15.43,-15.99,0,*77
1501963293.36,7183,27.19,74548.3,10.35,-15.71,-16.27,0,*77
1501963294.61,7184,27.19,74548.3,10.35,-15.39,-15.75,0,*78
1501963295.85,7185,27.19,74550.8,10.33,-15.39,-15.89,0,*7C
1501963297.12,7186,27.19,74550.3,10.35,-15.39,-15.85,0,*75
1501963298.37,7187,27.19,74546.0,10.33,-15.39,-15.89,0,*7E
1501963299.62,7188,27.19,74548.5,10.33,-15.39,-15.85,0,*7D
1501963300.84,7189,27.19,74546.3,10.33,-15.39,-15.75,0,*73
1501963302.06,7190,27.19,74548.0,10.35,-15.29,-15.75,0,*7C
1501963303.26,7191,27.19,74550.0,10.33,-15.15,-15.63,0,*73
1501963304.48,7192,27.19,74548.3,10.35,-15.15,-15.63,0,*76
1501963305.75,7193,27.19,74548.0,10.35,-15.39,-15.85,0,*71
1501963307.0,7194,27.19,74552.5,10.35,-15.49,-15.89,0,*7D
1501963308.24,7195,27.19,74554.5,10.35,-15.43,-15.99,0,*77
1501963309.51,7196,27.19,74548.5,10.35,-15.57,-16.13,0,*70
1501963310.73,7197,27.19,74554.0,10.35,-15.49,-16.03,0,*7F
1501963311.95,7198,27.19,74552.0,10.33,-15.57,-16.03,0,*79
1501963313.17,7199,27.19,74552.3,10.33,-15.43,-16.03,0,*7D
1501963314.41,7200,27.19,74554.8,10.33,-15.57,-16.27,0,*7D
1501963315.63,7201,27.19,74552.5,10.33,-15.71,-16.13,0,*7F
1501963316.87,7202,27.19,74554.8,10.35,-15.43,-16.03,0,*7A
1501963318.09,7203,27.19,74558.3,10.33,-15.43,-15.99,0,*7D
1501963319.34,7204,27.19,74556.5,10.33,-15.39,-15.85,0,*7A
1501963320.61,7205,27.19,74562.0,10.31,-15.43,-15.89,0,*78
1501963321.83,7206,27.19,74558.8,10.33,-15.43,-15.99,0,*78
1501963323.02,7207,27.19,74556.5,10.33,-15.49,-16.03,0,*73
1501963324.25,7208,27.19,74562.3,10.31,-15.49,-15.95,0,*72
1501963325.5,7209,27.19,74554.5,10.31,-15.63,-16.17,0,*72
1501963326.72,7210,27.19,74562.3,10.31,-15.49,-16.03,0,*77
1501963327.97,7211,27.19,74556.5,10.31,-15.35,-15.95,0,*71
1501963329.23,7212,27.19,74558.5,10.31,-15.53,-15.89,0,*7F
1501963330.45,7213,27.19,74556.5,10.31,-15.49,-16.03,0,*74
1501963331.68,7214,27.19,74556.3,10.29,-15.53,-16.09,0,*7B
1501963332.9,7215,27.19,74558.3,10.31,-15.53,-16.03,0,*79
1501963334.12,7216,27.19,74554.8,10.31,-15.49,-16.03,0,*71
1501963335.35,7217,27.19,74556.8,10.29,-15.53,-16.09,0,*78
1501963336.58,7218,27.19,74562.0,10.31,-15.53,-16.03,0,*74
1501963337.8,7219,27.19,74560.3,10.29,-15.67,-16.13,0,*7A
1501963339.03,7220,27.19,74560.5,10.29,-15.53,-16.09,0,*7C
1501963340.22,7221,27.19,74560.0,10.29,-15.53,-15.99,0,*77
1501963341.45,7222,27.19,74558.3,10.31,-15.49,-15.95,0,*7A
1501963342.65,7223,27.19,74548.8,10.29,-15.53,-15.99,0,*75
1501963343.92,7224,27.19,74550.8,10.31,-15.35,-15.89,0,*7A
1501963345.12,7225,27.19,74548.5,10.29,-15.49,-15.95,0,*74
1501963346.37,7226,27.19,74554.8,10.29,-15.39,-15.85,0,*71
1501963347.65,7227,27.19,74548.3,10.31,-15.35,-15.81,0,*71
1501963348.9,7228,27.19,74546.0,10.31,-15.35,-15.75,0,*75
1501963350.13,7229,27.19,74548.8,10.31,-15.29,-15.75,0,*79
1501963351.41,7230,27.19,74548.8,10.31,-15.35,-15.81,0,*77
1501963352.66,7231,27.19,74550.8,10.29,-15.39,-15.81,0,*73
1501963353.9,7232,27.19,74552.0,10.31,-15.21,-15.75,0,*7B
1501963355.16,7233,27.19,74558.0,10.31,-15.29,-15.81,0,*79
1501963356.35,7234,27.19,74554.8,10.33,-15.15,-15.63,0,*7F
1501963357.58,7235,27.19,74550.0,10.31,-15.29,-15.63,0,*73
1501963358.8,7236,27.19,74544.8,10.33,-15.11,-15.57,0,*7E
1501963359.99,7237,27.19,74546.0,10.33,-15.15,-15.71,0,*7F
1501963361.21,7238,27.13,74542.3,10.33,-15.15,-15.57,0,*74
1501963362.41,7239,27.19,74542.8,10.33,-15.25,-15.63,0,*71
1501963363.63,7240,27.19,74542.0,10.35,-15.25,-15.71,0,*7A
1501963364.83,7241,27.19,74540.3,10.33,-15.25,-15.71,0,*7D
1501963366.03,7242,27.19,74540.3,10.33,-15.25,-15.71,0,*7E
1501963367.22,7243,27.19,74544.0,10.33,-15.25,-15.63,0,*7C
1501963368.45,7244,27.19,74546.3,10.35,-15.25,-15.75,0,*7A
1501963369.7,7245,27.19,74550.3,10.33,-15.39,-15.85,0,*7F
1501963370.94,7246,27.19,74550.8,10.33,-15.39,-15.85,0,*7C
1501963372.16,7247,27.19,74544.5,10.33,-15.39,-15.63,0,*75
1501963373.38,7248,27.19,74546.8,10.33,-15.15,-15.57,0,*73
1501963374.59,7249,27.19,74546.5,10.33,-15.15,-15.49,0,*7D
1501963375.83,7250,27.13,74550.3,10.33,-15.01,-15.39,0,*77
1501963377.08,7251,27.19,74548.3,10.35,-14.97,-15.29,0,*7F
1501963378.29,7252,27.19,74530.3,10.35,-14.69,-15.15,0,*72
1501963379.52,7253,27.19,74544.8,10.35,-15.11,-15.49,0,*74
1501963380.74,7254,27.19,74544.8,10.35,-15.25,-15.63,0,*7C
1501963381.98,7255,27.19,74548.5,10.35,-15.25,-15.57,0,*7A
1501963383.21,7256,27.19,74550.0,10.35,-15.25,-15.63,0,*7E
1501963384.43,7257,27.13,74546.3,10.35,-15.25,-15.63,0,*7F
1501963385.68,7258,27.19,74548.3,10.35,-15.39,-15.71,0,*7E
1501963386.9,7259,27.13,74548.0,10.35,-15.29,-15.71,0,*7E
1501963388.13,7260,27.19,74552.3,10.35,-15.29,-15.75,0,*70
1501963389.4,7261,27.19,74548.8,10.35,-15.43,-15.89,0,*7E
1501963390.65,7262,27.19,74550.5,10.33,-15.39,-15.85,0,*7A
1501963391.92,7263,27.19,74550.5,10.35,-15.39,-15.89,0,*71
1501963393.14,7264,27.19,74554.8,10.35,-15.49,-15.99,0,*70
1501963394.35,7265,27.19,74554.0,10.33,-15.43,-15.99,0,*7D
1501963395.55,7266,27.19,74556.5,10.33,-15.49,-15.99,0,*74
1501963396.79,7267,27.19,74548.5,10.35,-15.43,-15.99,0,*79
1501963398.06,7268,27.13,74552.0,10.35,-15.43,-15.85,0,*7B
1501963399.31,7269,27.19,74552.0,10.33,-15.39,-15.85,0,*71
1501963400.56,7270,27.13,74540.8,10.35,-15.39,-15.75,0,*70
1501963401.81,7271,27.13,74550.0,10.35,-15.29,-15.85,0,*7F
1501963403.06,7272,27.13,74548.0,10.33,-15.39,-15.85,0,*7B
1501963404.33,7273,27.13,74550.5,10.35,-15.39,-15.85,0,*7C
1501963405.53,7274,27.13,74546.3,10.33,-15.25,-15.71,0,*7B
1501963406.78,7275,27.13,74544.0,10.35,-15.39,-15.75,0,*75
1501963407.97,7276,27.13,74544.3,10.33,-15.29,-15.75,0,*71
1501963409.2,7277,27.13,74534.8,10.35,-15.29,-15.75,0,*76
1501963410.45,7278,27.13,74538.3,10.35,-15.29,-15.85,0,*76
1501963411.72,7279,27.19,74540.5,10.35,-15.39,-15.89,0,*7A
1501963412.99,7280,27.13,74538.8,10.35,-15.39,-15.89,0,*7C
1501963414.26,7281,27.19,74544.8,10.35,-15.39,-15.89,0,*7D
1501963415.48,7282,27.13,74546.5,10.35,-15.49,-16.03,0,*78
1501963416.7,7283,27.13,74550.5,10.33,-15.43,-15.99,0,*75
1501963417.95,7284,27.19,74552.8,10.33,-15.39,-15.85,0,*72
1501963419.22,7285,27.13,74546.0,10.35,-15.39,-15.89,0,*79
1501963420.5,7286,27.13,74548.0,10.37,-15.43,-15.85,0,*79
1501963421.77,7287,27.13,74546.5,10.35,-15.43,-15.89,0,*76
1501963423.01,7288,27.13,74552.5,10.35,-15.43,-15.99,0,*78
1501963424.28,7289,27.19,74556.0,10.35,-15.43,-15.89,0,*78
1501963425.53,7290,27.13,74560.3,10.33,-15.43,-15.89,0,*76
1501963426.75,7291,27.19,74560.3,10.35,-15.49,-15.99,0,*7A
1501963427.97,7292,27.13,74560.8,10.33,-15.43,-15.99,0,*75
1501963429.19,7293,27.13,74566.8,10.33,-15.43,-15.99,0,*74
1501963430.46,7294,27.19,74566.8,10.35,-15.39,-15.89,0,*79
1501963431.73,7295,27.13,74560.5,10.35,-15.43,-15.89,0,*75
1501963432.92,7296,27.13,74562.8,10.33,-15.49,-16.03,0,*7B
1501963434.16,7297,27.13,74562.3,10.35,-15.57,-16.03,0,*73
1501963435.38,7298,27.13,74560.0,10.33,-15.57,-16.03,0,*7A
1501963436.62,7299,27.19,74564.0,10.35,-15.57,-16.03,0,*7D
1501963437.81,7300,27.13,74562.0,10.33,-15.49,-15.99,0,*75
1501963439.06,7301,27.13,74560.3,10.33,-15.43,-15.85,0,*73
1501963440.3,7302,27.13,74558.5,10.35,-15.57,-16.03,0,*7E
1501963441.55,7303,27.13,74556.5,10.33,-15.57,-16.13,0,*78
1501963442.77,7304,27.13,74556.8,10.33,-15.63,-16.13,0,*78
1501963443.98,7305,27.13,74558.3,10.33,-15.57,-16.03,0,*7F
1501963445.2,7306,27.13,74558.3,10.33,-15.71,-16.31,0,*79
1501963446.47,7307,27.13,74562.5,10.31,-15.81,-16.31,0,*75
1501963447.69,7308,27.13,74560.5,10.31,-15.95,-16.37,0,*79
1501963448.91,7309,27.13,74558.8,10.33,-15.71,-16.27,0,*71
1501963450.13,7310,27.13,74558.8,10.29,-15.63,-16.17,0,*72
1501963451.39,7311,27.13,74558.3,10.31,-15.63,-16.09,0,*75
1501963452.58,7312,27.13,74558.8,10.29,-15.49,-16.03,0,*7D
1501963453.83,7313,27.13,74558.5,10.29,-15.57,-16.13,0,*72
1501963455.08,7314,27.13,74552.5,10.31,-15.43,-16.03,0,*78
1501963456.31,7315,27.13,74556.8,10.29,-15.25,-15.81,0,*79
1501963457.53,7316,27.13,74554.3,10.29,-15.39,-15.99,0,*7E
1501963458.75,7317,27.13,74554.3,10.31,-15.49,-16.03,0,*71
1501963459.97,7318,27.13,74556.3,10.29,-15.67,-16.13,0,*7A
1501963461.22,7319,27.13,74556.0,10.31,-15.49,-16.09,0,*75
1501963462.42,7320,27.13,74556.5,10.29,-15.53,-15.99,0,*77
1501963463.62,7321,27.13,74554.5,10.29,-15.49,-15.95,0,*71
1501963464.87,7322,27.13,74552.3,10.29,-15.39,-15.85,0,*74
1501963466.1,7323,27.13,74548.5,10.29,-15.25,-15.81,0,*7C
1501963467.35,7324,27.13,74552.3,10.29,-15.35,-15.85,0,*7E
1501963468.55,7325,27.13,74550.3,10.29,-15.25,-15.71,0,*75
1501963469.77,7326,27.13,74548.8,10.29,-15.21,-15.71,0,*72
1501963470.95,7327,27.13,74550.3,10.29,-15.11,-15.67,0,*77
1501963472.18,7328,27.13,74544.8,10.31,-15.15,-15.63,0,*71
1501963473.37,7329,27.13,74550.0,10.29,-15.11,-15.71,0,*7E
1501963474.6,7330,27.13,74552.8,10.31,-15.15,-15.67,0,*7C
1501963475.82,7331,27.13,74552.8,10.31,-15.15,-15.75,0,*7E
1501963477.04,7332,27.13,74548.5,10.29,-15.07,-15.57,0,*77
1501963478.29,7333,27.13,74546.0,10.31,-14.93,-15.53,0,*77
1501963479.54,7334,27.13,74546.5,10.31,-15.01,-15.53,0,*7A
1501963480.73,7335,27.19,74548.8,10.33,-15.11,-15.63,0,*7B
1501963481.93,7336,27.13,74548.8,10.33,-15.15,-15.75,0,*7B
1501963483.15,7337,27.13,74550.3,10.33,-15.25,-15.89,0,*7A
1501963484.42,7338,27.13,74550.3,10.35,-15.39,-15.89,0,*7E
1501963485.64,7339,27.13,74544.3,10.33,-15.39,-15.99,0,*78
1501963486.86,7340,27.13,74546.0,10.33,-15.29,-15.89,0,*76
1501963488.08,7341,27.13,74546.8,10.33,-15.29,-15.89,0,*77
1501963489.33,7342,27.13,74552.8,10.33,-15.39,-15.85,0,*79
1501963490.57,7343,27.13,74554.3,10.33,-15.39,-15.89,0,*74
1501963491.77,7344,27.13,74550.0,10.33,-15.29,-15.75,0,*71
1501963492.99,7345,27.13,74554.3,10.33,-15.29,-15.89,0,*73
1501963494.19,7346,27.13,74548.5,10.33,-15.15,-15.63,0,*7B
1501963495.44,7347,27.13,74558.8,10.35,-15.29,-15.85,0,*7B
1501963496.66,7348,27.13,74556.8,10.33,-15.29,-15.85,0,*72
1501963497.93,7349,27.13,74558.8,10.35,-15.39,-15.89,0,*78
1501963499.13,7350,27.13,74548.0,10.33,-15.29,-15.75,0,*74
1501963500.38,7351,27.13,74546.8,10.33,-15.39,-15.89,0,*77
1501963501.65,7352,27.13,74546.0,10.35,-15.39,-15.89,0,*72
1501963502.87,7353,27.13,74544.8,10.33,-15.43,-15.99,0,*79
1501963504.08,7354,27.13,74550.8,10.33,-15.39,-15.99,0,*73
1501963505.33,7355,27.13,74546.5,10.35,-15.39,-15.99,0,*74
1501963506.57,7356,27.13,74546.5,10.35,-15.39,-15.99,0,*77
1501963507.82,7357,27.13,74548.5,10.33,-15.39,-15.89,0,*71
1501963509.02,7358,27.13,74554.3,10.33,-15.25,-15.71,0,*74
1501963510.27,7359,27.13,74552.5,10.35,-15.39,-15.75,0,*7A
1501963511.51,7360,27.13,74558.8,10.35,-15.39,-15.75,0,*70
1501963512.71,7361,27.13,74552.8,10.33,-15.25,-15.71,0,*7E
1501963513.96,7362,27.13,74554.0,10.33,-15.39,-15.85,0,*7B
1501963515.2,7363,27.13,74550.0,10.33,-15.39,-15.89,0,*76
1501963516.4,7364,27.13,74546.0,10.33,-15.25,-15.71,0,*7B
1501963517.63,7365,27.13,74550.8,10.35,-15.29,-15.75,0,*74
1501963518.87,7366,27.13,74552.8,10.33,-15.43,-15.89,0,*7E
1501963520.15,7367,27.13,74550.5,10.35,-15.39,-15.85,0,*78
1501963521.37,7368,27.13,74552.5,10.35,-15.25,-15.71,0,*71
1501963522.6,7369,27.13,74552.8,10.35,-15.29,-15.75,0,*78
1501963523.87,7370,27.13,74556.5,10.35,-15.39,-15.85,0,*7E
1501963525.14,7371,27.13,74548.5,10.35,-15.43,-15.85,0,*72
1501963526.36,7372,27.13,74552.8,10.35,-15.25,-15.63,0,*79
1501963527.61,7373,27.13,74554.3,10.35,-15.29,-15.85,0,*7C
1501963528.89,7374,27.13,74554.8,10.35,-15.39,-15.89,0,*76
1501963530.08,7375,27.13,74550.5,10.33,-15.49,-15.99,0,*77
1501963531.3,7376,27.13,74552.8,10.35,-15.49,-15.99,0,*72
1501963532.51,7377,27.13,74550.8,10.33,-15.43,-15.99,0,*7F
1501963533.71,7378,27.13,74548.0,10.33,-15.49,-15.99,0,*7A
1501963534.92,7379,27.13,74550.5,10.33,-15.57,-16.03,0,*74
1501963536.11,7380,27.13,74556.0,10.33,-15.49,-15.99,0,*7D
1501963537.39,7381,27.13,74552.0,10.35,-15.43,-15.89,0,*71
1501963538.63,7382,27.13,74554.5,10.33,-15.43,-15.89,0,*74
1501963539.88,7383,27.13,74556.3,10.33,-15.43,-15.89,0,*75
1501963541.15,7384,27.13,74550.8,10.35,-15.43,-15.85,0,*78
1501963542.37,7385,27.13,74554.8,10.33,-15.25,-15.85,0,*7F
1501963543.62,7386,27.13,74556.0,10.33,-15.39,-15.85,0,*71
1501963544.86,7387,27.13,74554.5,10.33,-15.39,-15.89,0,*7C
1501963546.13,7388,27.13,74556.5,10.35,-15.39,-15.89,0,*75
1501963547.41,7389,27.13,74554.0,10.35,-15.39,-15.89,0,*74
1501963548.65,7390,27.13,74564.0,10.33,-15.39,-15.89,0,*7A
1501963549.92,7391,27.13,74558.5,10.35,-15.39,-15.89,0,*7D
1501963551.17,7392,27.13,74560.3,10.35,-15.29,-15.85,0,*73
1501963552.44,7393,27.13,74564.5,10.35,-15.39,-15.89,0,*7F
1501963553.71,7394,27.13,74558.5,10.35,-15.43,-15.89,0,*75
1501963554.96,7395,27.13,74556.5,10.35,-15.49,-16.13,0,*7E
1501963556.23,7396,27.13,74552.5,10.35,-15.57,-16.13,0,*72
1501963557.5,7397,27.13,74548.3,10.35,-15.57,-16.17,0,*77
1501963558.72,7398,27.13,74544.5,10.33,-15.63,-16.17,0,*79
1501963559.94,7399,27.13,74542.3,10.33,-15.71,-16.27,0,*78
1501963561.19,7400,27.13,74540.8,10.33,-15.57,-16.17,0,*78
1501963562.41,7401,27.13,74538.0,10.33,-15.63,-16.17,0,*7E
1501963563.63,7402,27.13,74540.5,10.33,-15.63,-16.27,0,*7E
1501963564.88,7403,27.13,74544.0,10.33,-15.57,-16.17,0,*7B
1501963566.09,7404,27.13,74544.8,10.33,-15.63,-16.31,0,*7F
1501963567.31,7405,27.13,74546.0,10.33,-15.71,-16.31,0,*7D
1501963568.53,7406,27.13,74546.3,10.33,-15.71,-16.31,0,*7E
1501963569.75,7407,27.13,74544.0,10.33,-15.75,-16.27,0,*7C
1501963570.97,7408,27.13,74544.0,10.33,-15.75,-16.27,0,*73
1501963572.19,7409,27.13,74546.8,10.33,-15.63,-16.27,0,*75
1501963573.41,7410,27.13,74548.5,10.33,-15.63,-16.27,0,*7D
1501963574.63,7411,27.13,74552.3,10.31,-15.75,-16.37,0,*78
1501963575.85,7412,27.13,74550.8,10.33,-15.63,-16.31,0,*78
1501963577.1,7413,27.13,74546.5,10.31,-15.75,-16.31,0,*7C
1501963578.32,7414,27.13,74548.3,10.29,-15.81,-16.37,0,*7F
1501963579.51,7415,27.13,74546.5,10.33,-15.75,-16.37,0,*7E
1501963580.76,7416,27.13,74546.8,10.33,-15.57,-16.17,0,*7F
1501963581.97,7417,27.13,74540.5,10.33,-15.71,-16.27,0,*79
1501963583.17,7418,27.13,74546.0,10.33,-15.75,-16.37,0,*73
1501963584.39,7419,27.13,74540.3,10.31,-15.75,-16.37,0,*70
1501963585.64,7420,27.13,74544.0,10.31,-15.63,-16.23,0,*78
1501963586.89,7421,27.13,74544.0,10.31,-15.81,-16.37,0,*70
1501963588.1,7422,27.13,74542.3,10.29,-15.85,-16.45,0,*7B
1501963589.35,7423,27.13,74540.3,10.31,-15.63,-16.23,0,*7B
1501963590.58,7424,27.13,74542.8,10.29,-15.49,-16.09,0,*75
1501963591.83,7425,27.13,74534.3,10.31,-15.43,-15.95,0,*71
1501963593.08,7426,27.13,74540.0,10.31,-15.43,-16.03,0,*7E
1501963594.33,7427,27.13,74538.8,10.31,-15.43,-15.95,0,*73
1501963595.59,7428,27.13,74540.3,10.31,-15.53,-16.17,0,*74
1501963596.83,7429,27.13,74544.3,10.31,-15.67,-16.23,0,*75
1501963598.08,7430,27.13,74546.5,10.31,-15.53,-16.23,0,*7A
1501963599.33,7431,27.13,74548.8,10.31,-15.63,-16.23,0,*78
1501963600.58,7432,27.13,74550.0,10.31,-15.63,-16.23,0,*7B
1501963601.83,7433,27.13,74552.3,10.31,-15.63,-16.23,0,*7A
1501963603.05,7434,27.13,74548.3,10.33,-15.63,-16.17,0,*78
1501963604.3,7435,27.13,74550.8,10.31,-15.75,-16.31,0,*78
1501963605.55,7436,27.13,74554.5,10.31,-15.63,-16.31,0,*7C
1501963606.79,7437,27.13,74556.8,10.33,-15.57,-16.17,0,*7C
1501963608.04,7438,27.13,74554.5,10.31,-15.75,-16.51,0,*73
1501963609.24,7439,27.13,74552.3,10.29,-15.67,-16.37,0,*78
1501963610.48,7440,27.13,74546.8,10.31,-15.81,-16.45,0,*72
1501963611.72,7441,27.13,74546.0,10.31,-16.03,-16.65,0,*78
1501963612.98,7442,27.13,74550.0,10.31,-16.09,-16.75,0,*70
1501963614.18,7443,27.13,74556.8,10.29,-15.99,-16.59,0,*7C
1501963615.43,7444,27.13,74552.5,10.29,-16.13,-16.69,0,*79
1501963616.65,7445,27.13,74552.5,10.29,-16.03,-16.65,0,*75
1501963617.9,7446,27.13,74554.3,10.29,-16.09,-16.69,0,*70
1501963619.1,7447,27.13,74552.5,10.29,-15.99,-16.59,0,*78
1501963620.35,7448,27.06,74546.5,10.27,-16.03,-16.65,0,*76
1501963621.6,7449,27.13,74552.5,10.27,-16.17,-16.75,0,*73
1501963622.83,7450,27.13,74560.0,10.27,-15.75,-16.45,0,*7F
1501963624.05,7451,27.13,74562.3,10.27,-15.75,-16.41,0,*7A
1501963625.3,7452,27.13,74552.5,10.27,-15.75,-16.31,0,*7E
1501963626.58,7453,27.13,74550.8,10.27,-15.57,-16.17,0,*7B
1501963627.83,7454,27.13,74546.0,10.27,-15.53,-16.13,0,*7C
1501963629.1,7455,27.13,74542.0,10.27,-15.57,-16.13,0,*79
1501963630.37,7456,27.13,74548.5,10.27,-15.57,-16.13,0,*7A
1501963631.65,7457,27.13,74546.5,10.27,-15.57,-16.17,0,*7F
1501963632.9,7458,27.13,74554.5,10.27,-15.71,-16.27,0,*77
1501963634.15,7459,27.13,74556.5,10.27,-15.71,-16.27,0,*76
1501963635.42,7460,27.13,74552.5,10.27,-15.57,-16.17,0,*7B
1501963636.67,7461,27.13,74554.3,10.29,-15.57,-16.13,0,*70
1501963637.89,7462,27.13,74558.8,10.29,-15.85,-16.41,0,*7B
1501963639.11,7463,27.13,74562.0,10.29,-15.85,-16.45,0,*7E
1501963640.35,7464,27.13,74562.3,10.27,-16.03,-16.51,0,*7F
1501963641.57,7465,27.06,74562.3,10.27,-15.99,-16.45,0,*7B
1501963642.84,7466,27.13,74562.0,10.27,-15.57,-16.13,0,*79
1501963644.09,7467,27.13,74570.3,10.27,-15.63,-16.17,0,*7B
1501963645.34,7468,27.06,74564.5,10.27,-15.63,-16.17,0,*74
1501963646.59,7469,27.13,74562.3,10.27,-15.43,-15.99,0,*72
1501963647.84,7470,27.13,74552.5,10.27,-15.43,-15.99,0,*7A
1501963649.09,7471,27.13,74558.3,10.27,-15.43,-15.99,0,*7B
1501963650.34,7472,27.13,74556.8,10.27,-15.29,-15.89,0,*75
1501963651.54,7473,27.06,74552.5,10.25,-15.25,-15.71,0,*7D
1501963652.78,7474,27.13,74554.0,10.31,-15.21,-15.67,0,*7C
1501963654.02,7475,27.13,74554.8,10.31,-15.21,-15.75,0,*7E
1501963655.22,7476,27.13,74552.8,10.29,-15.25,-15.71,0,*74
1501963656.42,7477,27.13,74558.0,10.29,-15.25,-15.71,0,*75
1501963657.62,7478,27.13,74556.8,10.29,-15.25,-15.71,0,*7A
1501963658.87,7479,27.13,74556.5,10.29,-15.39,-15.85,0,*7D
1501963660.15,7480,27.13,74560.0,10.31,-15.35,-15.81,0,*7A
1501963661.43,7481,27.06,74556.3,10.31,-15.43,-15.81,0,*7A
1501963662.68,7482,27.13,74560.0,10.33,-15.39,-15.89,0,*7E
1501963663.95,7483,27.13,74560.0,10.31,-15.35,-15.89,0,*71
1501963665.2,7484,27.06,74554.5,10.31,-15.43,-15.95,0,*7A
1501963666.46,7485,27.06,74556.8,10.31,-15.43,-15.95,0,*7B
1501963667.68,7486,27.06,74556.5,10.31,-15.49,-16.03,0,*7E
1501963668.9,7487,27.06,74554.5,10.31,-15.49,-15.95,0,*73
1501963670.15,7488,27.06,74554.5,10.31,-15.67,-16.31,0,*7D
1501963671.4,7489,27.06,74558.5,10.31,-15.63,-16.09,0,*73
1501963672.62,7490,27.13,74554.5,10.31,-15.49,-16.03,0,*79
1501963673.87,7491,27.06,74554.8,10.31,-15.53,-16.23,0,*71
1501963675.12,7492,27.13,74558.3,10.31,-15.53,-16.23,0,*72
1501963676.37,7493,27.06,74558.5,10.31,-15.53,-16.23,0,*73
1501963677.6,7494,27.13,74562.8,10.31,-15.49,-16.03,0,*7D
1501963678.85,7495,27.06,74560.3,10.31,-15.49,-16.09,0,*76
1501963680.1,7496,27.06,74564.0,10.31,-15.43,-16.03,0,*75
1501963681.35,7497,27.06,74562.5,10.31,-15.35,-15.95,0,*79
1501963682.6,7498,27.06,74566.0,10.31,-15.53,-16.23,0,*78
1501963683.81,7499,27.06,74564.5,10.33,-15.49,-16.13,0,*73
1501963685.06,7500,27.06,74560.8,10.31,-15.67,-16.31,0,*7C
1501963686.29,7501,27.06,74556.8,10.31,-15.75,-16.37,0,*78
1501963687.53,7502,27.13,74556.8,10.31,-15.81,-16.55,0,*74
1501963688.78,7503,27.06,74552.5,10.31,-15.81,-16.55,0,*75
1501963690.01,7504,27.06,74552.8,10.31,-15.75,-16.55,0,*79
1501963691.26,7505,27.06,74552.0,10.31,-15.95,-16.69,0,*79
1501963692.54,7506,27.13,74552.3,10.31,-16.09,-16.69,0,*7C
1501963693.76,7507,27.06,74552.3,10.29,-16.23,-16.89,0,*72
1501963694.98,7508,27.06,74552.3,10.29,-16.23,-16.97,0,*72
1501963696.2,7509,27.06,74548.3,10.29,-16.23,-16.89,0,*7C
1501963697.45,7510,27.06,74548.0,10.31,-16.09,-16.79,0,*7A
1501963698.67,7511,27.06,74552.3,10.29,-16.27,-16.97,0,*7E
1501963699.89,7512,27.06,74556.8,10.29,-16.27,-16.89,0,*72
1501963701.11,7513,27.06,74556.8,10.29,-16.23,-16.89,0,*77
1501963702.36,7514,27.06,74556.0,10.27,-16.17,-16.89,0,*79